User: anonymous   Login
Location: Gipe Farm
(40.9466°N, 95.5370°W)
Time: 04:48:58
(UTC-05:00)
Language:

Cosmos 2082 Rocket - Orbit

View from above orbital plane
View from above orbital plane
View from above satellite
View from above satellite

Ground track
Ground track

The orbit data is extracted from the following two-line orbital elements,

1 20625U 90046B   15146.55726115 -.00000212  00000-0 -85315-4 0  9996
2 20625 071.0000 288.6991 0014056 180.5193 248.8586 14.14577810291406
Epoch (UTC): 26 May 2015 13:22:27
Eccentricity: 0.0014056
inclination: 71.0000°
perigee height: 833 km
apogee height: 854 km
right ascension of ascending node: 288.6991°
argument of perigee: 180.5193°
revolutions per day: 14.14577810
mean anomaly at epoch: 248.8586°
orbit number at epoch: 29140

The dashed part of the orbit path shows where the satellite is in the earth's shadow,  

DLR